カタログに戻る

STARLINK-11164

運用中通信VLEO
NORAD 60120·PAYLOAD·🇺🇸 United States

打ち上げ Jun 24, 2024 から Vandenberg Space Force Base

Loading…

次のパス (今後24時間)

TLE

最新Source: CelesTrak SupGP

元期: Sep 15, 2026, 02:28 UTC

1 60120C 24118H   26258.10326389 -.00056761  00000+0 -46751-3 0  2580
2 60120  53.1573   7.4369 0000955  82.6997 290.2713 15.69740884    11

AllMySatでSTARLINK-11164をリアルタイム追跡

Download on the App Store